Other Surface Observations
Issued by NWS

Home | Current Version | Previous Version | Text Only | Print | Product List | Glossary On
Versions: 1 2 3 4 5 6 7 8 9 10 11 12 13 14 15 16 17 18 19 20 21 22 23 24 25 26 27 28 29 30 31 32 33 34 35 36 37 38 39 40 41 42 43 44 45 46 47 48 49 50
000
SXUS52 KTAE 250918
OSOTAE
OSOTAE
North Florida/South Alabama/Southwest Georgia Weather Roundup
National Weather Service Tallahassee Florida
500 AM EDT SAT OCT 25 2014

Note: "fair" indicates few or no clouds below 12,000 feet with no
significant weather and/or obstructions to visibility.

!FLZ017-115-028-034-025-251000
...North Florida...

CITY           SKY/WX    TMP DP  RH WIND       PRES   REMARKS
TALLAHASSEE    CLEAR     46  41  82 MISG      29.99F
APALACHICOLA   CLEAR     54  47  77 NW3       30.00S
PERRY          CLEAR     46  46 100 CALM      30.01R
CROSS CITY       N/A     46  43  89 CALM      29.99S
JACKSONVILLE   CLEAR     49  48  97 CALM      29.98S
$$

!FLZ112-006-005-002-011-251000
...Florida Panhandle...

CITY           SKY/WX    TMP DP  RH WIND       PRES   REMARKS
MARIANNA       CLEAR     48  48 100 CALM      30.00F
BONIFAY        NOT AVBL
PANAMA CITY NW FAIR      50  45  83 N3        30.01S
TYNDALL AFB    CLEAR     53  49  85 N3        30.02S
TYND DRONE APT FAIR      54  51  87 MISG      30.00
DE FUNIAK SPR  FAIR      50  45  83 NW7       30.03S
EGLIN AFB      CLEAR     54  44  67 NW5       30.02F
DESTIN         CLEAR     60  48  64 N8        30.02F
HURLBURT       CLEAR     49  42  74 N9        30.02F
CRESTVIEW      CLEAR     51  44  77 N3        30.05S
PENSACOLA      CLEAR     55  46  71 N8        30.04S
$$

!ALZ063-066-251000
...South Alabama...

CITY           SKY/WX    TMP DP  RH WIND       PRES   REMARKS
DOTHAN         CLEAR     49  44  83 NW6       30.04F
OZARK CAIRNS   CLEAR     49  44  84 NW6       30.02S
FT RUCKER HELI CLEAR     42  41  96 CALM      30.02S
RUCKER HELI 3  FAIR      50  45  82 N5        30.05R
RUCKER HELI 2  FAIR      46  44  93 NW5       30.02S WCI  44
FLORALA APT    CLEAR     52  44  74 N5        30.05S
ANDALUSIA      CLEAR     51  44  77 N3        30.04S
TROY           CLEAR     42  39  89 CALM      30.04S
EUFALA         FAIR      43  41  93 CALM      30.01S
MOBILE         CLEAR     51  45  79 N3        30.08S
$$

!GAZ120>161-251000
...Southwest and South Central Georgia...

CITY           SKY/WX    TMP DP  RH WIND       PRES   REMARKS
THOMASVILLE    FAIR      50  50 100 CALM      30.01S
BAINBRIDGE     CLEAR     48  46  93 CALM      30.00F
MOODY AFB      CLEAR     46  44  92 N1        30.00R
VALDOSTA       CLEAR     46  41  82 CALM      29.99F HAZE
MOULTRIE       CLEAR     50  48  93 CALM      30.00F
BLAKELY        CLEAR     46  45  93 CALM        N/A
ALBANY         CLEAR     48  45  89 CALM      30.02F
TIFTON         FAIR      47  46  97 CALM      30.00R
FITZGERALD     FAIR      45  43  91 CALM      30.02S
CORDELE        FAIR      47  45  92 CALM      30.01S
AMERICUS       FAIR      45  45 100 CALM      30.02F
HOMERVILLE     FAIR      46  46 100 CALM      30.00S
$$

!GMZ750-755-770-775-251000
...Coastal and Buoy Obs...

STATION/POSITION TIME  TEMP    WIND        PRES    VSBY  WAVE
                       AIR SEA DIR/SP/G                  HT/PER
                 (UTC) (F)     (DEG/KT/KT) (MB)    (MI)  (FT/S)
KEATON BEACH     0900   53      40/  2/  3 1016.0R
CEDAR KEY        0856   60     350/  2/  3 1015.8F
C TOWER          0900   69     350/ 10/ 11 1015.7R
APALACHICOLA BUO 0900   72 80   10/  8/ 12 1015.5R         1/ 3
PANAMA CITY BUOY 0802   74 79   10/ 12/ 16 1015.9          2/ 4
MOBILE BUOY      0847   74 78   20/ 16/ 19 1017.7R         3/ 4
ORANGE BCH AL BU 0900   69 78   20/ 17/ 19 1016.7S         2/ 3
$$



USA.gov is the U.S. government's official web portal to all federal, state and local government web resources and services.